This demonstration page uses our WeatherBlox Daily Observations layout. Learn more.

Left ArrowRight Arrow

Hourly Observations for March 3, 2021

Temp ( °F °C ) Dew Point ( °F °C ) Humidity (%) Winds ( mph kmh ) Pressure ( in mb ) Visibility ( mi km ) Precip ( " mm )
12:51 am 00:51 Clear 50 10 12 -11.1 22 22 ESE 13 20 29.94 1014 10 16 N/A
1:51 am 01:51 Clear 50 10 13 -10.6 22 22 ESE 14 22 29.94 1014 10 16 N/A
2:51 am 02:51 Clear 48 8.9 13 -10.6 24 24 SE 14 22 29.93 1013 10 16 N/A
3:51 am 03:51 Clear 48 8.9 13 -10.6 24 24 ESE 18 30 29.93 1013 10 16 N/A
4:51 am 04:51 Clear 48 8.9 13 -10.6 24 24 SE 20 31 29.94 1014 10 16 N/A
5:51 am 05:51 Clear 46 7.8 13 -10.6 26 26 SE 17 28 29.96 1015 10 16 N/A
6:51 am 06:51 Sunny 45 7.2 13 -10.6 27 27 ESE 16 26 29.98 1015 10 16 N/A
7:51 am 07:51 Sunny 48 8.9 13 -10.6 24 24 SE 17 28 29.99 1016 10 16 N/A
8:51 am 08:51 Sunny 52 11.1 14 -10 22 22 SE 17 28 30.00 1016 10 16 N/A
9:51 am 09:51 Sunny 58 14.4 14 -10 18 18 SE 13 20 30.00 1016 10 16 N/A
10:51 am 10:51 Sunny 64 17.8 14 -10 14 14 ESE 12 19 29.96 1015 10 16 N/A
11:51 am 11:51 Partly Cloudy 68 20 14 -10 12 12 SE 15 24 29.92 1013 10 16 N/A
12:51 pm 12:51 Partly Cloudy 74 23.3 12 -11.1 9 9 ESE 14 22 29.88 1012 10 16 N/A
1:51 pm 13:51 Partly Cloudy 75 23.9 13 -10.6 9 9 E 12 19 29.82 1010 10 16 N/A
2:51 pm 14:51 Sunny 77 25 15 -9.4 9 9 SE 10 17 29.79 1009 10 16 N/A
3:51 pm 15:51 Sunny 79 26.1 18 -7.8 10 10 SSE 10 17 29.75 1008 10 16 N/A
4:51 pm 16:51 Mostly Sunny 78 25.6 25 -3.9 14 14 S 15 24 29.74 1007 10 16 N/A
5:51 pm 17:51 Partly Cloudy 77 25 29 -1.7 17 17 SSW 28 44 29.74 1007 10 16 N/A
6:51 pm 18:51 Mostly Clear 75 23.9 29 -1.7 18 18 SSW 21 33 29.77 1008 10 16 N/A
7:51 pm 19:51 Mostly Clear 72 22.2 27 -2.8 19 19 SW 21 33 29.79 1009 10 16 N/A
8:51 pm 20:51 Clear 70 21.1 27 -2.8 20 20 SW 13 20 29.82 1010 10 16 N/A
9:21 pm 21:21 Clear 63 17.2 29 -1.7 28 28 NW 12 19 29.83 1010 10 16 N/A
9:51 pm 21:51 Clear 61 16.1 29 -1.7 30 30 NW 16 26 29.86 1011 10 16 N/A
10:51 pm 22:51 Clear 58 14.4 30 -1.1 35 35 NW 18 30 29.88 1012 10 16 N/A
11:51 pm 23:51 Clear 56 13.3 29 -1.7 36 36 WNW 15 24 29.90 1013 10 16 N/A

Powered by AerisWeather